Regional Weather Roundup
Issued by NWS Portland, ME

Current Version | Previous Version | Text Only | Print | Product List | Glossary Off
Versions: 1 2 3 4 5 6 7 8 9 10 11 12 13 14 15 16 17 18 19 20 21 22 23 24 25 26 27 28 29 30 31 32 33 34 35 36 37 38 39 40 41 42 43 44 45 46 47 48 49 50
767 ASUS41 KGYX 222010 RWRGYX WEATHER ROUNDUP FOR MAINE AND NEW HAMPSHIRE NATIONAL WEATHER SERVICE GRAY ME 400 PM EDT TUE AUG 22 2017 MEZ002-005-006-010-012-015-018-020-021-024-026-027-029-222100- MAINE CITY SKY/WX TMP DP RH WIND PRES REMARKS PORTLAND MOSUNNY 79 69 71 S16G24 29.77F SANFORD CLOUDY 85 71 63 S6 29.78F HX 90 BAR HARBOR CLOUDY 69 67 93 S15 29.84F WISCASSET SUNNY 81 71 71 S8 29.80F ROCKLAND FOG 70 68 94 S6 29.81F VSB 3/4 FRYEBURG MOSUNNY 85 69 58 S10G18 29.76F LEWISTONAUBURN MOSUNNY 83 72 69 S10G17 29.76F AUGUSTA CLOUDY 82 69 64 S12G17 29.78F WATERVILLE MOSUNNY 82 70 66 S9 29.74F BANGOR CLOUDY 81 67 62 S21 29.79F GREENVILLE N/A 78 64 61 S8 29.76F MILLINOCKET CLOUDY 82 63 52 VRB7G17 29.76F HOULTON MOSUNNY 82 63 52 S8 29.74F PRESQUE ISLE PTSUNNY 82 64 54 S12G22 29.74F FRENCHVILLE CLOUDY 74 64 71 SE12 29.73F CARIBOU PTSUNNY 81 64 56 S9 29.72F $$ NHZ002-005-008-009-011-012-014-222100- NEW HAMPSHIRE CITY SKY/WX TMP DP RH WIND PRES REMARKS PORTSMOUTH MOSUNNY 88 70 54 S8 29.76F HX 93 ROCHESTER CLOUDY 88 70 55 VRB6 29.77F HX 93 NASHUA PTSUNNY 89 72 56 S8 29.78F HX 96 MANCHESTER MOSUNNY 89 67 47 S13G21 29.76F HX 92 CONCORD PTSUNNY 89 69 51 S15 29.76F HX 93 LACONIA MOSUNNY 86 69 56 S13G20 29.76F HX 90 PLYMOUTH FAIR 87 67 51 SE3 29.74F HX 90 BERLIN CLOUDY 84 62 47 S10G17 29.75F WHITEFIELD PTSUNNY 84 65 52 VRB6 29.73F JAFFREY MOSUNNY 84 71 65 S10G21 29.84F KEENE N/A N/A N/A N/A MISG N/A LEBANON MOSUNNY 88 71 57 S15G25 29.73F HX 94 MT WASHINGTON FOG 59 59 100 SW31G43 N/A VSB 1/8 $$ VTZ005-007-008-222100- VERMONT CITY SKY/WX TMP DP RH WIND PRES REMARKS ST JOHNSBURY N/A 83 69 62 MISG 29.69F MONTPELIER PTSUNNY 82 67 60 S18 29.76F BURLINGTON CLOUDY 84 71 65 S15G22 29.65F $$ MAZ007-012-024-CTZ003-RIZ002-NYZ038-NYZ072-222100- SOUTHERN NEW ENGLAND AND NY CITY SKY/WX TMP DP RH WIND PRES REMARKS BOSTON MOSUNNY 90 69 50 S20G29 29.80F HX 94 WORCESTER MOSUNNY 86 66 51 S14G22 29.85F NANTUCKET CLOUDY 73 72 96 S16 29.95F PROVIDENCE MOSUNNY 88 75 65 S18G25 29.86F HX 97 HARTFORD MOSUNNY 90 71 53 S15G23 29.81F HX 96 ALBANY PTSUNNY 88 70 55 S16G26 29.73F HX 93 NEW YORK CITY MOSUNNY 90 76 63 SE12G22 29.83F HX 101 $$ ANZ081-ANZ082-ANZ150-NHZ014-MEZ023>029-222100- COASTAL MARINE OBSERVATIONS STATION/POSITION TIME TEMP WIND PRES WAVE AIR SEA DIR/SP/G HT/PER (UTC) (F) (DEG/KT/KT) (MB) (FT/S) MATINICUS ROCK 1900 65 190/ 16/ 16 1011.0F ISLE OF SHOALS 1900 73 170/ 21/ 21 1009.8F JEFFREYS LEDGE 1906 66 N/A 2/ 4 CASHES LEDGE BUO 1850 74 69 1011.5 3/ 4 GEORGES BANK BUO 1850 69 67 1016.4 2/ 9 $$ .............KEY.............. WCI - WIND CHILL TC - TEMPERATURE IN CELSIUS VSB - VISIBILITY IN MILES HX - HEAT INDEX FAIR- INDICATES FEW OR NO CLOUDS BELOW 12,000 FT, WITH NO SIGNIFICANT WEATHER AND/OR OBSTRUCTIONS TO VISIBILITY.

USA.gov is the U.S. government's official web portal to all federal, state and local government web resources and services.